When you browse on this site, cookies collect data to enhance your experience and personalize the content and advertising you see.
Visit our Privacy Policy to learn more. By continuing to use the site, you agree to this use of cookies and data.
  • In Romania
  • List of Countries
  • For 7 days
  • Water Temperature
  • Satellite Maps
  • Weather Map
  • Weather Widgets
  • user-avatar
    Login

    Hourly Weather Djelfa

    Today, 22 March, Friday

    Time Temperature Precipitation Wind Pressure Humidity
    00:00 +3°C° 0 mm 9 mps 663 mmHg 90%
    01:00 +3°C° 0 mm 9 mps 663 mmHg 91%
    02:00 +4°C° 0 mm 8 mps 663 mmHg 91%
    03:00 +4°C° 0 mm 8 mps 663 mmHg 92%
    04:00 +4°C° 0 mm 8 mps 663 mmHg 92%
    05:00 +4°C° 0 mm 8 mps 663 mmHg 92%
    06:00 +3°C° 0 mm 9 mps 663 mmHg 94%
    07:00 +3°C° 0 mm 9 mps 663 mmHg 90%
    08:00 +5°C° 0 mm 8 mps 663 mmHg 87%
    09:00 +5°C° 0 mm 8 mps 663 mmHg 83%
    10:00 +5°C° 0.7 mm 8 mps 663 mmHg 84%
    11:00 +5°C° 0.7 mm 7 mps 663 mmHg 84%
    12:00 +4°C° 0 mm 8 mps 663 mmHg 89%
    13:00 +5°C° 0.8 mm 7 mps 663 mmHg 86%
    14:00 +5°C° 0.8 mm 7 mps 663 mmHg 84%
    15:00 +5°C° 0.8 mm 7 mps 663 mmHg 82%
    16:00 +5°C° 0.3 mm 7 mps 663 mmHg 81%
    17:00 +5°C° 0.3 mm 7 mps 663 mmHg 79%
    18:00 +5°C° 0.3 mm 6 mps 664 mmHg 78%
    19:00 +5°C° 0 mm 6 mps 664 mmHg 82%
    20:00 +4°C° 0 mm 6 mps 664 mmHg 86%
    21:00 +3°C° 0 mm 5 mps 664 mmHg 90%
    22:00 +4°C° 0 mm 4 mps 664 mmHg 92%
    23:00 +3°C° 0 mm 4 mps 665 mmHg 94%

    Tomorrow, 23 March, Saturday

    Time Temperature Precipitation Wind Pressure Humidity
    00:00 +3°C° 0 mm 3 mps 665 mmHg 96%
    01:00 +3°C° 0 mm 3 mps 665 mmHg 96%
    02:00 +3°C° 0 mm 3 mps 664 mmHg 95%
    03:00 +3°C° 0 mm 4 mps 664 mmHg 95%
    04:00 +3°C° 0 mm 4 mps 665 mmHg 95%
    05:00 +1°C° 0 mm 4 mps 665 mmHg 94%
    06:00 +1°C° 0 mm 4 mps 665 mmHg 94%
    07:00 +3°C° 0 mm 4 mps 665 mmHg 87%
    08:00 +4°C° 0 mm 4 mps 666 mmHg 79%
    09:00 +5°C° 0 mm 4 mps 666 mmHg 72%
    10:00 +7°C° 0 mm 4 mps 666 mmHg 65%
    11:00 +8°C° 0 mm 4 mps 666 mmHg 59%
    12:00 +11°C° 0 mm 4 mps 666 mmHg 52%
    13:00 +11°C° 0 mm 4 mps 666 mmHg 51%
    14:00 +11°C° 0 mm 4 mps 666 mmHg 50%
    15:00 +12°C° 0 mm 3 mps 666 mmHg 50%
    16:00 +12°C° 0.1 mm 3 mps 665 mmHg 51%
    17:00 +11°C° 0.1 mm 3 mps 665 mmHg 53%
    18:00 +11°C° 0.1 mm 3 mps 665 mmHg 55%
    19:00 +10°C° 0 mm 3 mps 666 mmHg 59%
    20:00 +10°C° 0 mm 3 mps 666 mmHg 62%
    21:00 +9°C° 0 mm 3 mps 667 mmHg 66%
    22:00 +9°C° 0 mm 3 mps 667 mmHg 70%
    23:00 +8°C° 0 mm 3 mps 667 mmHg 75%

    Day after tomorrow, 24 March, Sunday

    Time Temperature Precipitation Wind Pressure Humidity
    00:00 +8°C° 0 mm 3 mps 667 mmHg 80%
    01:00 +7°C° 0 mm 3 mps 666 mmHg 81%
    02:00 +7°C° 0 mm 3 mps 666 mmHg 83%
    03:00 +7°C° 0 mm 3 mps 666 mmHg 84%
    04:00 +5°C° 0 mm 3 mps 666 mmHg 82%
    05:00 +5°C° 0 mm 3 mps 666 mmHg 81%
    06:00 +5°C° 0 mm 3 mps 666 mmHg 79%
    07:00 +6°C° 0 mm 4 mps 667 mmHg 73%
    08:00 +8°C° 0 mm 5 mps 668 mmHg 66%
    09:00 +9°C° 0 mm 6 mps 668 mmHg 59%
    10:00 +10°C° 0 mm 5 mps 668 mmHg 54%
    11:00 +12°C° 0 mm 5 mps 668 mmHg 49%
    12:00 +13°C° 0 mm 5 mps 668 mmHg 45%
    13:00 +13°C° 0 mm 5 mps 668 mmHg 43%
    14:00 +13°C° 0 mm 5 mps 667 mmHg 41%
    15:00 +14°C° 0 mm 5 mps 667 mmHg 40%
    16:00 +13°C° 0 mm 5 mps 667 mmHg 43%
    17:00 +13°C° 0 mm 5 mps 667 mmHg 46%
    18:00 +12°C° 0 mm 4 mps 667 mmHg 48%
    19:00 +11°C° 0 mm 4 mps 668 mmHg 53%
    20:00 +11°C° 0 mm 4 mps 668 mmHg 57%
    21:00 +10°C° 0 mm 4 mps 668 mmHg 62%
    22:00 +10°C° 0 mm 4 mps 668 mmHg 64%
    23:00 +8°C° 0 mm 4 mps 668 mmHg 65%

    25 March, Monday

    Time Temperature Precipitation Wind Pressure Humidity
    00:00 +8°C° 0 mm 5 mps 667 mmHg 67%
    01:00 +7°C° 0 mm 4 mps 667 mmHg 69%
    02:00 +7°C° 0 mm 4 mps 667 mmHg 70%
    03:00 +8°C° 0 mm 3 mps 667 mmHg 72%
    04:00 +8°C° 0 mm 3 mps 667 mmHg 73%
    05:00 +7°C° 0 mm 3 mps 666 mmHg 75%
    06:00 +7°C° 0 mm 3 mps 666 mmHg 76%
    07:00 +8°C° 0 mm 3 mps 667 mmHg 68%
    08:00 +10°C° 0 mm 4 mps 667 mmHg 60%
    09:00 +12°C° 0 mm 4 mps 668 mmHg 53%
    10:00 +13°C° 0 mm 4 mps 668 mmHg 48%
    11:00 +14°C° 0 mm 3 mps 668 mmHg 44%
    12:00 +16°C° 0 mm 3 mps 668 mmHg 39%
    13:00 +16°C° 0 mm 3 mps 667 mmHg 38%
    14:00 +17°C° 0 mm 3 mps 667 mmHg 36%
    15:00 +17°C° 0 mm 4 mps 666 mmHg 35%
    16:00 +17°C° 0 mm 4 mps 666 mmHg 36%
    17:00 +16°C° 0 mm 3 mps 666 mmHg 38%
    18:00 +16°C° 0 mm 3 mps 666 mmHg 39%
    19:00 +14°C° 0 mm 4 mps 666 mmHg 41%
    20:00 +13°C° 0 mm 4 mps 666 mmHg 43%
    21:00 +13°C° 0 mm 4 mps 666 mmHg 45%
    22:00 +12°C° 0 mm 4 mps 666 mmHg 46%
    23:00 +12°C° 0 mm 4 mps 666 mmHg 47%

    26 March, Tuesday

    Time Temperature Precipitation Wind Pressure Humidity
    00:00 +12°C° 0 mm 4 mps 666 mmHg 49%
    01:00 +11°C° 0 mm 4 mps 666 mmHg 50%
    02:00 +11°C° 0 mm 3 mps 665 mmHg 52%
    03:00 +10°C° 0 mm 3 mps 665 mmHg 53%
    04:00 +10°C° 0 mm 2 mps 665 mmHg 54%
    05:00 +10°C° 0 mm 2 mps 665 mmHg 55%
    06:00 +11°C° 0 mm 1 mps 664 mmHg 57%
    07:00 +13°C° 0 mm 2 mps 665 mmHg 51%
    08:00 +13°C° 0 mm 3 mps 666 mmHg 45%
    09:00 +16°C° 0 mm 3 mps 667 mmHg 39%
    10:00 +17°C° 0 mm 3 mps 667 mmHg 39%
    11:00 +17°C° 0 mm 4 mps 667 mmHg 40%
    12:00 +17°C° 0 mm 4 mps 667 mmHg 40%
    13:00 +17°C° 0 mm 4 mps 666 mmHg 42%
    14:00 +17°C° 0 mm 4 mps 666 mmHg 43%
    15:00 +17°C° 0 mm 4 mps 665 mmHg 45%
    16:00 +16°C° 0 mm 3 mps 665 mmHg 47%
    17:00 +16°C° 0 mm 3 mps 665 mmHg 48%
    18:00 +15°C° 0 mm 2 mps 665 mmHg 50%
    19:00 +15°C° 0 mm 2 mps 665 mmHg 51%
    20:00 +14°C° 0 mm 2 mps 666 mmHg 51%
    21:00 +13°C° 0 mm 3 mps 666 mmHg 52%
    22:00 +14°C° 0 mm 2 mps 666 mmHg 53%
    23:00 +13°C° 0 mm 2 mps 666 mmHg 54%

    27 March, Wednesday

    Time Temperature Precipitation Wind Pressure Humidity
    00:00 +13°C° 0 mm 2 mps 666 mmHg 55%
    01:00 +12°C° 0 mm 3 mps 666 mmHg 55%
    02:00 +11°C° 0 mm 4 mps 666 mmHg 56%
    03:00 +10°C° 0 mm 5 mps 666 mmHg 57%
    04:00 +10°C° 0 mm 5 mps 666 mmHg 56%
    05:00 +10°C° 0 mm 6 mps 666 mmHg 55%
    06:00 +10°C° 0 mm 7 mps 666 mmHg 54%
    07:00 +10°C° 0 mm 8 mps 666 mmHg 54%
    08:00 +11°C° 0 mm 10 mps 667 mmHg 55%
    09:00 +10°C° 0 mm 12 mps 667 mmHg 55%
    10:00 +12°C° 0 mm 12 mps 667 mmHg 54%
    11:00 +12°C° 0 mm 12 mps 667 mmHg 52%
    12:00 +13°C° 0 mm 13 mps 667 mmHg 50%
    13:00 +12°C° 0 mm 13 mps 667 mmHg 52%
    14:00 +12°C° 0 mm 13 mps 666 mmHg 53%
    15:00 +10°C° 0 mm 13 mps 666 mmHg 55%
    16:00 +10°C° 0 mm 12 mps 666 mmHg 54%
    17:00 +9°C° 0 mm 12 mps 666 mmHg 53%
    18:00 +8°C° 0 mm 12 mps 666 mmHg 52%
    19:00 +8°C° 0 mm 11 mps 666 mmHg 49%
    20:00 +7°C° 0 mm 11 mps 667 mmHg 45%
    21:00 +7°C° 0 mm 10 mps 667 mmHg 42%
    22:00 +7°C° 0.3 mm 10 mps 667 mmHg 44%
    23:00 +6°C° 0.3 mm 10 mps 667 mmHg 46%
    Show more